START_TIME,STEP,MOV.,M6,t_acc.,M7,t_acc.,M19,t_acc.,H36,t_acc.
1980-11-15 12:00:15.690 ,0,0,0.,12.0,0.,12.0,0.,12.0,0.,12.0
1980-11-15 12:00:27.690 ,0,0,0.,12.0,0.,12.0,0.,12.0,0.,12.0
1980-11-15 12:00:39.690 ,0,1,0.,12.0,0.,12.0,0.,12.0,0.,12.0
1980-11-15 12:00:51.690 ,0,1,1.,12.0,0.,12.0,0.,12.0,0.,12.0
1980-11-15 12:01:03.690 ,0,0,0.,12.0,0.,12.0,0.,12.0,0.,12.0
1980-11-15 12:01:15.690 ,0,0,0.,12.0,0.,12.0,0.,12.0,0.,12.0
1980-11-15 12:03:03.690 ,0,0,0.,12.0,0.,12.0,0.,12.0,0.,12.0
1980-11-15 12:03:15.690 ,0,0,0.,12.0,0.,12.0,0.,12.0,0.,12.0
1980-11-15 12:03:27.690 ,0,0,0.,12.0,0.,12.0,0.,12.0,0.,12.0
1980-11-15 12:03:39.690 ,0,0,0.,12.0,0.,12.0,0.,12.0,0.,12.0
1980-11-15 12:03:51.690 ,4,1,0.,12.0,0.,12.0,0.,12.0,0.,12.0
1980-11-15 12:04:03.690 ,4,1,0.,12.0,0.,12.0,0.,12.0,0.,12.0
1980-11-15 12:04:15.690 ,4,0,0.,12.0,0.,12.0,0.,12.0,0.,12.0
1980-11-15 12:04:27.690 ,4,0,0.,12.0,0.,12.0,0.,12.0,0.,12.0
1980-11-15 12:03:03.690 ,0,0,0.,12.0,0.,12.0,0.,12.0,0.,12.0
1980-11-15 12:03:15.690 ,0,0,0.,12.0,0.,12.0,0.,12.0,0.,12.0
1980-11-15 12:03:27.690 ,0,0,0.,12.0,0.,12.0,0.,12.0,0.,12.0
1980-11-15 12:03:39.690 ,0,0,0.,12.0,0.,12.0,0.,12.0,0.,12.0
1980-11-15 12:03:51.690 ,4,1,0.,12.0,0.,12.0,0.,12.0,0.,12.0
1980-11-15 12:04:03.690 ,4,1,0.,12.0,0.,12.0,0.,12.0,0.,12.0
1980-11-15 12:04:15.690 ,4,0,0.,12.0,0.,12.0,0.,12.0,0.,12.0
1980-11-15 12:04:27.690 ,4,0,0.,12.0,0.,12.0,0.,12.0,0.,12.0
1980-11-15 12:03:27.690 ,0,0,0.,12.0,0.,12.0,0.,12.0,0.,12.0
1980-11-15 12:03:39.690 ,0,0,0.,12.0,0.,12.0,0.,12.0,0.,12.0
1980-11-15 12:03:51.690 ,4,1,0.,12.0,0.,12.0,0.,12.0,0.,12.0
1980-11-15 12:04:03.690 ,4,1,0.,12.0,0.,12.0,0.,12.0,0.,12.0
1980-11-15 12:04:15.690 ,4,0,0.,12.0,0.,12.0,0.,12.0,0.,12.0
1980-11-15 12:04:27.690 ,4,0,0.,12.0,0.,12.0,0.,12.0,0.,12.0
1980-11-15 12:13:27.690 ,0,1,0.,12.0,0.,12.0,0.,12.0,0.,12.0
1980-11-15 12:13:39.690 ,0,1,0.,12.0,0.,12.0,0.,12.0,0.,12.0
1980-11-15 12:13:51.690 ,0,0,0.,12.0,0.,12.0,0.,12.0,0.,12.0
1980-11-15 12:14:03.690 ,0,0,0.,12.0,0.,12.0,0.,12.0,0.,12.0
1980-11-15 12:14:15.690 ,1,1,0.,12.0,0.,12.0,0.,12.0,0.,12.0
1980-11-15 12:14:27.690 ,1,1,0.,12.0,0.,12.0,0.,12.0,0.,12.0
1980-11-15 12:14:39.690 ,1,0,0.,12.0,0.,12.0,0.,12.0,0.,12.0
1980-11-15 12:14:51.690 ,1,0,0.,12.0,0.,12.0,0.,12.0,0.,12.0
1980-11-15 12:15:03.690 ,2,1,0.,12.0,0.,12.0,0.,12.0,0.,12.0
1980-11-15 12:15:15.690 ,2,1,0.,12.0,0.,12.0,0.,12.0,0.,12.0
1980-11-15 12:15:27.690 ,2,0,0.,12.0,0.,12.0,0.,12.0,0.,12.0
1980-11-15 12:15:39.690 ,2,0,0.,12.0,0.,12.0,0.,12.0,0.,12.0
1980-11-15 12:15:51.690 ,3,1,0.,12.0,0.,12.0,0.,12.0,0.,12.0
1980-11-15 12:16:03.690 ,3,1,0.,12.0,0.,12.0,0.,12.0,0.,12.0
1980-11-15 12:16:15.690 ,3,0,0.,12.0,0.,12.0,0.,12.0,0.,12.0
1980-11-15 12:16:27.690 ,3,0,0.,12.0,0.,12.0,0.,12.0,0.,12.0
1980-11-15 12:16:39.690 ,4,1,0.,12.0,0.,12.0,0.,12.0,0.,12.0
1980-11-15 12:16:51.690 ,4,1,0.,12.0,0.,12.0,0.,12.0,0.,12.0
1980-11-15 12:17:03.690 ,4,0,0.,12.0,0.,12.0,0.,12.0,0.,12.0
1980-11-15 12:17:15.690 ,4,0,0.,12.0,0.,12.0,0.,12.0,0.,12.0
1980-11-15 12:17:27.690 ,5,1,0.,12.0,0.,12.0,0.,12.0,0.,12.0
1980-11-15 12:17:39.690 ,5,1,0.,12.0,0.,12.0,0.,12.0,0.,12.0
1980-11-15 12:17:51.690 ,5,0,0.,12.0,0.,12.0,0.,12.0,0.,12.0
1980-11-15 12:18:03.690 ,5,0,0.,12.0,0.,12.0,0.,12.0,0.,12.0
1980-11-15 12:18:15.690 ,6,1,0.,12.0,0.,12.0,0.,12.0,0.,12.0
1980-11-15 12:18:27.690 ,6,1,0.,12.0,0.,12.0,0.,12.0,0.,12.0
1980-11-15 12:18:39.690 ,6,0,0.,12.0,0.,12.0,0.,12.0,0.,12.0
1980-11-15 12:18:51.690 ,6,0,0.,12.0,0.,12.0,0.,12.0,0.,12.0
1980-11-15 12:19:03.690 ,7,1,0.,12.0,0.,12.0,0.,12.0,0.,12.0
1980-11-15 12:19:15.690 ,7,1,0.,12.0,0.,12.0,0.,12.0,0.,12.0
1980-11-15 12:19:27.690 ,7,0,0.,12.0,0.,12.0,0.,12.0,0.,12.0
1980-11-15 12:19:39.690 ,7,0,0.,12.0,0.,12.0,0.,12.0,0.,12.0
1980-11-15 12:19:51.690 ,7,1,0.,12.0,0.,12.0,0.,12.0,0.,12.0
1980-11-15 12:20:03.690 ,7,1,0.,12.0,0.,12.0,0.,12.0,0.,12.0
1980-11-15 12:20:15.690 ,7,0,0.,12.0,0.,12.0,0.,12.0,0.,12.0
1980-11-15 12:20:27.690 ,7,0,0.,12.0,0.,12.0,0.,12.0,0.,12.0
1980-11-15 12:20:39.690 ,6,1,0.,12.0,0.,12.0,0.,12.0,0.,12.0
1980-11-15 12:20:51.690 ,6,1,0.,12.0,0.,12.0,0.,12.0,0.,12.0
1980-11-15 12:21:03.690 ,6,0,0.,12.0,0.,12.0,0.,12.0,0.,12.0
1980-11-15 12:21:15.690 ,6,0,0.,12.0,0.,12.0,0.,12.0,0.,12.0
1980-11-15 12:21:27.690 ,5,1,0.,12.0,0.,12.0,0.,12.0,0.,12.0
1980-11-15 12:21:39.690 ,5,1,0.,12.0,0.,12.0,0.,12.0,0.,12.0
1980-11-15 12:21:51.690 ,5,0,0.,12.0,0.,12.0,0.,12.0,0.,12.0
1980-11-15 12:22:03.690 ,5,0,0.,12.0,0.,12.0,0.,12.0,0.,12.0
1980-11-15 12:22:15.690 ,4,1,0.,12.0,0.,12.0,0.,12.0,0.,12.0
1980-11-15 12:22:27.690 ,4,1,0.,12.0,0.,12.0,0.,12.0,0.,12.0
1980-11-15 12:22:39.690 ,4,0,0.,12.0,0.,12.0,0.,12.0,0.,12.0
1980-11-15 12:22:51.690 ,4,0,0.,12.0,0.,12.0,0.,12.0,0.,12.0
1980-11-15 12:23:03.690 ,3,1,0.,12.0,0.,12.0,0.,12.0,0.,12.0
1980-11-15 12:23:15.690 ,3,1,0.,12.0,0.,12.0,0.,12.0,0.,12.0
1980-11-15 12:23:27.690 ,3,0,0.,12.0,0.,12.0,0.,12.0,0.,12.0
1980-11-15 12:23:39.690 ,3,0,0.,12.0,0.,12.0,0.,12.0,0.,12.0
1980-11-15 12:23:51.690 ,2,1,0.,12.0,0.,12.0,0.,12.0,0.,12.0
1980-11-15 12:24:03.690 ,2,1,0.,12.0,0.,12.0,0.,12.0,0.,12.0
1980-11-15 12:24:15.690 ,2,0,0.,12.0,0.,12.0,0.,12.0,0.,12.0
1980-11-15 12:24:27.690 ,2,0,0.,12.0,0.,12.0,0.,12.0,0.,12.0
1980-11-15 12:24:39.690 ,1,1,0.,12.0,0.,12.0,0.,12.0,0.,12.0
1980-11-15 12:24:51.690 ,1,1,0.,12.0,0.,12.0,0.,12.0,0.,12.0
1980-11-15 12:25:03.690 ,1,0,0.,12.0,0.,12.0,0.,12.0,0.,12.0
1980-11-15 12:25:15.690 ,1,0,0.,12.0,0.,12.0,0.,12.0,0.,12.0
1980-11-15 12:25:27.690 ,0,1,0.,12.0,0.,12.0,0.,12.0,0.,12.0
1980-11-15 12:25:39.690 ,0,1,0.,12.0,0.,12.0,0.,12.0,0.,12.0
1980-11-15 12:25:51.690 ,0,0,0.,12.0,0.,12.0,0.,12.0,0.,12.0
1980-11-15 12:26:03.690 ,0,0,0.,12.0,0.,12.0,0.,12.0,0.,12.0
1980-11-15 12:26:15.690 ,0,1,0.,12.0,0.,12.0,0.,12.0,0.,12.0
1980-11-15 12:26:27.690 ,0,1,0.,12.0,0.,12.0,0.,12.0,0.,12.0
1980-11-15 12:26:39.690 ,0,0,0.,12.0,0.,12.0,0.,12.0,0.,12.0
1980-11-15 12:26:51.690 ,0,0,0.,12.0,0.,12.0,0.,12.0,0.,12.0
1980-11-15 12:27:03.690 ,1,1,0.,12.0,0.,12.0,0.,12.0,0.,12.0
1980-11-15 12:27:15.690 ,1,1,0.,12.0,0.,12.0,0.,12.0,0.,12.0
1980-11-15 12:27:27.690 ,1,0,0.,12.0,0.,12.0,0.,12.0,0.,12.0
1980-11-15 12:27:39.690 ,1,0,0.,12.0,0.,12.0,0.,12.0,0.,12.0
1980-11-15 12:27:51.690 ,2,1,0.,12.0,0.,12.0,0.,12.0,0.,12.0
1980-11-15 12:28:03.690 ,2,1,0.,12.0,0.,12.0,0.,12.0,0.,12.0
1980-11-15 12:28:15.690 ,2,0,0.,12.0,0.,12.0,0.,12.0,0.,12.0
1980-11-15 12:28:27.690 ,2,0,0.,12.0,0.,12.0,0.,12.0,0.,12.0
1980-11-15 12:28:39.690 ,3,1,0.,12.0,0.,12.0,0.,12.0,0.,12.0
1980-11-15 12:28:51.690 ,3,1,0.,12.0,0.,12.0,0.,12.0,0.,12.0
1980-11-15 12:29:03.690 ,3,0,0.,12.0,0.,12.0,0.,12.0,0.,12.0
1980-11-15 12:29:15.690 ,3,0,0.,12.0,0.,12.0,0.,12.0,0.,12.0
1980-11-15 12:29:27.690 ,4,1,0.,12.0,0.,12.0,0.,12.0,0.,12.0
1980-11-15 12:29:39.690 ,4,1,0.,12.0,0.,12.0,0.,12.0,0.,12.0
1980-11-15 12:29:51.690 ,4,0,0.,12.0,0.,12.0,0.,12.0,0.,12.0
1980-11-15 12:30:03.690 ,4,0,0.,12.0,0.,12.0,0.,12.0,0.,12.0
1980-11-15 12:30:15.690 ,5,1,0.,12.0,0.,12.0,0.,12.0,0.,12.0
1980-11-15 12:30:27.690 ,5,1,0.,12.0,0.,12.0,0.,12.0,0.,12.0
1980-11-15 12:30:39.690 ,5,0,0.,12.0,0.,12.0,0.,12.0,0.,12.0
1980-11-15 12:30:51.690 ,5,0,0.,12.0,0.,12.0,0.,12.0,0.,12.0
1980-11-15 12:31:03.690 ,6,1,0.,12.0,0.,12.0,0.,12.0,0.,12.0
1980-11-15 12:31:15.690 ,6,1,0.,12.0,0.,12.0,0.,12.0,0.,12.0
1980-11-15 12:31:27.690 ,6,0,0.,12.0,0.,12.0,0.,12.0,0.,12.0
1980-11-15 12:31:39.690 ,6,0,0.,12.0,0.,12.0,0.,12.0,0.,12.0
1980-11-15 12:31:51.690 ,7,1,0.,12.0,0.,12.0,0.,12.0,0.,12.0
1980-11-15 12:32:03.690 ,7,1,0.,12.0,0.,12.0,0.,12.0,0.,12.0
1980-11-15 12:32:15.690 ,7,0,0.,12.0,0.,12.0,0.,12.0,0.,12.0
1980-11-15 12:32:27.690 ,7,0,0.,12.0,0.,12.0,0.,12.0,0.,12.0
1980-11-15 12:32:39.690 ,7,1,0.,12.0,0.,12.0,0.,12.0,0.,12.0
1980-11-15 12:32:51.690 ,7,1,0.,12.0,0.,12.0,0.,12.0,0.,12.0
1980-11-15 12:33:03.690 ,7,0,0.,12.0,0.,12.0,0.,12.0,0.,12.0
1980-11-15 12:33:15.690 ,7,0,0.,12.0,0.,12.0,0.,12.0,0.,12.0
1980-11-15 12:33:27.690 ,6,1,0.,12.0,0.,12.0,0.,12.0,0.,12.0
1980-11-15 12:33:39.690 ,6,1,0.,12.0,0.,12.0,0.,12.0,0.,12.0
1980-11-15 12:33:51.690 ,6,0,0.,12.0,0.,12.0,0.,12.0,0.,12.0
1980-11-15 12:34:03.690 ,6,0,0.,12.0,0.,12.0,0.,12.0,0.,12.0
1980-11-15 12:34:15.690 ,5,1,0.,12.0,0.,12.0,0.,12.0,0.,12.0
1980-11-15 12:34:27.690 ,5,1,0.,12.0,0.,12.0,0.,12.0,0.,12.0
1980-11-15 12:34:39.690 ,5,0,0.,12.0,0.,12.0,0.,12.0,0.,12.0
1980-11-15 12:34:51.690 ,5,0,0.,12.0,0.,12.0,0.,12.0,0.,12.0
1980-11-15 12:35:03.690 ,4,1,0.,12.0,0.,12.0,0.,12.0,0.,12.0
1980-11-15 12:35:15.690 ,4,1,0.,12.0,0.,12.0,0.,12.0,0.,12.0
1980-11-15 12:35:27.690 ,4,0,0.,12.0,0.,12.0,0.,12.0,0.,12.0
1980-11-15 12:35:39.690 ,4,0,0.,12.0,0.,12.0,0.,12.0,0.,12.0
1980-11-15 12:35:51.690 ,3,1,0.,12.0,0.,12.0,0.,12.0,0.,12.0
1980-11-15 12:36:03.690 ,3,1,0.,12.0,0.,12.0,0.,12.0,0.,12.0
1980-11-15 12:36:15.690 ,3,0,0.,12.0,0.,12.0,0.,12.0,0.,12.0
1980-11-15 12:36:27.690 ,3,0,0.,12.0,0.,12.0,0.,12.0,0.,12.0
1980-11-15 12:36:39.690 ,2,1,0.,12.0,0.,12.0,0.,12.0,0.,12.0
1980-11-15 12:36:51.690 ,2,1,0.,12.0,0.,12.0,0.,12.0,0.,12.0
1980-11-15 12:37:03.690 ,2,0,0.,12.0,0.,12.0,0.,12.0,0.,12.0
1980-11-15 12:37:15.690 ,2,0,0.,12.0,0.,12.0,0.,12.0,0.,12.0
1980-11-15 12:37:27.690 ,1,1,0.,12.0,0.,12.0,0.,12.0,0.,12.0
1980-11-15 12:37:39.690 ,1,1,0.,12.0,0.,12.0,0.,12.0,0.,12.0
1980-11-15 12:37:51.690 ,1,0,0.,12.0,0.,12.0,0.,12.0,0.,12.0
1980-11-15 12:38:03.690 ,1,0,0.,12.0,0.,12.0,0.,12.0,0.,12.0
1980-11-15 12:38:15.690 ,0,1,0.,12.0,0.,12.0,0.,12.0,0.,12.0
1980-11-15 12:38:27.690 ,0,1,0.,12.0,0.,12.0,0.,12.0,0.,12.0
1980-11-15 12:38:39.690 ,0,0,0.,12.0,0.,12.0,0.,12.0,0.,12.0
1980-11-15 12:38:51.690 ,0,0,0.,12.0,0.,12.0,0.,12.0,0.,12.0
1980-11-15 12:39:03.690 ,0,1,0.,12.0,0.,12.0,0.,12.0,0.,12.0
1980-11-15 12:39:15.690 ,0,1,0.,12.0,0.,12.0,0.,12.0,0.,12.0
1980-11-15 12:39:27.690 ,0,0,0.,12.0,0.,12.0,0.,12.0,0.,12.0
1980-11-15 12:39:39.690 ,0,0,0.,12.0,0.,12.0,0.,12.0,0.,12.0
1980-11-15 12:39:51.690 ,1,1,0.,12.0,0.,12.0,0.,12.0,0.,12.0
1980-11-15 12:40:03.690 ,1,1,0.,12.0,0.,12.0,0.,12.0,0.,12.0
1980-11-15 12:40:15.690 ,1,0,0.,12.0,0.,12.0,0.,12.0,0.,12.0
1980-11-15 12:40:27.690 ,1,0,0.,12.0,0.,12.0,0.,12.0,0.,12.0
1980-11-15 12:40:39.690 ,2,1,0.,12.0,0.,12.0,0.,12.0,0.,12.0
1980-11-15 12:40:51.690 ,2,1,0.,12.0,0.,12.0,0.,12.0,0.,12.0
1980-11-15 12:41:03.690 ,2,0,0.,12.0,0.,12.0,0.,12.0,0.,12.0
1980-11-15 12:41:15.690 ,2,0,0.,12.0,0.,12.0,0.,12.0,0.,12.0
1980-11-15 12:41:27.690 ,3,1,0.,12.0,0.,12.0,0.,12.0,0.,12.0
1980-11-15 12:41:39.690 ,3,1,0.,12.0,0.,12.0,0.,12.0,0.,12.0
1980-11-15 12:41:51.690 ,3,0,0.,12.0,0.,12.0,0.,12.0,0.,12.0
1980-11-15 12:42:03.690 ,3,0,0.,12.0,0.,12.0,0.,12.0,0.,12.0
1980-11-15 12:42:15.690 ,4,1,0.,12.0,0.,12.0,0.,12.0,0.,12.0
1980-11-15 12:42:27.690 ,4,1,0.,12.0,0.,12.0,0.,12.0,0.,12.0
1980-11-15 12:42:39.690 ,4,0,0.,12.0,0.,12.0,0.,12.0,0.,12.0
1980-11-15 12:42:51.690 ,4,0,0.,12.0,0.,12.0,0.,12.0,0.,12.0
1980-11-15 12:43:03.690 ,5,1,0.,12.0,0.,12.0,0.,12.0,0.,12.0
1980-11-15 12:43:15.690 ,5,1,0.,12.0,0.,12.0,0.,12.0,0.,12.0
1980-11-15 12:43:27.690 ,5,0,0.,12.0,0.,12.0,0.,12.0,0.,12.0
1980-11-15 12:43:39.690 ,5,0,0.,12.0,0.,12.0,0.,12.0,0.,12.0
1980-11-15 12:43:51.690 ,6,1,0.,12.0,0.,12.0,0.,12.0,0.,12.0
1980-11-15 12:44:03.690 ,6,1,0.,12.0,0.,12.0,0.,12.0,0.,12.0
1980-11-15 12:44:15.690 ,6,0,0.,12.0,0.,12.0,0.,12.0,0.,12.0
1980-11-15 12:44:27.690 ,6,0,0.,12.0,0.,12.0,0.,12.0,0.,12.0
1980-11-15 12:44:39.690 ,7,1,0.,12.0,0.,12.0,0.,12.0,0.,12.0
1980-11-15 12:44:51.690 ,7,1,0.,12.0,0.,12.0,0.,12.0,0.,12.0
1980-11-15 12:45:03.690 ,7,0,0.,12.0,0.,12.0,0.,12.0,0.,12.0
1980-11-15 12:45:15.690 ,7,0,0.,12.0,0.,12.0,0.,12.0,0.,12.0
1980-11-15 12:45:27.690 ,7,1,0.,12.0,0.,12.0,0.,12.0,0.,12.0
1980-11-15 12:45:39.690 ,7,1,0.,12.0,0.,12.0,0.,12.0,0.,12.0
1980-11-15 12:45:51.690 ,7,0,0.,12.0,0.,12.0,0.,12.0,0.,12.0
1980-11-15 12:46:03.690 ,7,0,0.,12.0,0.,12.0,0.,12.0,0.,12.0
1980-11-15 12:46:15.690 ,6,1,0.,12.0,0.,12.0,0.,12.0,0.,12.0
1980-11-15 12:46:27.690 ,6,1,0.,12.0,0.,12.0,0.,12.0,0.,12.0
1980-11-15 12:46:39.690 ,6,0,0.,12.0,0.,12.0,0.,12.0,0.,12.0
1980-11-15 12:46:51.690 ,6,0,0.,12.0,0.,12.0,0.,12.0,0.,12.0
1980-11-15 12:47:03.690 ,5,1,0.,12.0,0.,12.0,0.,12.0,0.,12.0
1980-11-15 12:47:15.690 ,5,1,0.,12.0,0.,12.0,0.,12.0,0.,12.0
1980-11-15 12:47:27.690 ,5,0,0.,12.0,0.,12.0,0.,12.0,0.,12.0
1980-11-15 12:47:39.690 ,5,0,0.,12.0,0.,12.0,0.,12.0,0.,12.0
1980-11-15 12:47:51.690 ,4,1,0.,12.0,0.,12.0,0.,12.0,0.,12.0
1980-11-15 12:48:03.690 ,4,1,0.,12.0,0.,12.0,0.,12.0,0.,12.0
1980-11-15 12:48:15.690 ,4,0,0.,12.0,0.,12.0,0.,12.0,0.,12.0
1980-11-15 12:48:27.690 ,4,0,0.,12.0,0.,12.0,0.,12.0,0.,12.0
1980-11-15 12:48:39.690 ,3,1,0.,12.0,0.,12.0,0.,12.0,0.,12.0
1980-11-15 12:48:51.690 ,3,1,0.,12.0,0.,12.0,0.,12.0,0.,12.0
1980-11-15 12:49:03.690 ,3,0,0.,12.0,0.,12.0,0.,12.0,0.,12.0
1980-11-15 12:49:15.690 ,3,0,0.,12.0,0.,12.0,0.,12.0,0.,12.0
1980-11-15 12:49:27.690 ,2,1,0.,12.0,0.,12.0,0.,12.0,0.,12.0
1980-11-15 12:49:39.690 ,2,1,0.,12.0,0.,12.0,0.,12.0,0.,12.0
1980-11-15 12:49:51.690 ,2,0,0.,12.0,0.,12.0,0.,12.0,0.,12.0
1980-11-15 12:50:03.690 ,2,0,0.,12.0,0.,12.0,0.,12.0,0.,12.0
1980-11-15 12:50:15.690 ,1,1,0.,12.0,0.,12.0,0.,12.0,0.,12.0
1980-11-15 12:50:27.690 ,1,1,0.,12.0,0.,12.0,0.,12.0,0.,12.0
1980-11-15 12:50:39.690 ,1,0,0.,12.0,0.,12.0,0.,12.0,0.,12.0
1980-11-15 12:50:51.690 ,1,0,0.,12.0,0.,12.0,0.,12.0,0.,12.0
1980-11-15 12:51:03.690 ,0,1,0.,12.0,0.,12.0,0.,12.0,0.,12.0
1980-11-15 12:51:15.690 ,0,1,0.,12.0,0.,12.0,0.,12.0,0.,12.0
1980-11-15 12:51:27.690 ,0,0,0.,12.0,0.,12.0,0.,12.0,0.,12.0
1980-11-15 12:51:39.690 ,0,0,0.,12.0,0.,12.0,0.,12.0,0.,12.0
1980-11-15 12:51:51.690 ,0,1,0.,12.0,0.,12.0,0.,12.0,0.,12.0
1980-11-15 12:52:03.690 ,0,1,0.,12.0,0.,12.0,0.,12.0,0.,12.0
1980-11-15 12:52:15.690 ,0,0,0.,12.0,0.,12.0,0.,12.0,0.,12.0
1980-11-15 12:52:27.690 ,0,0,0.,12.0,0.,12.0,0.,12.0,0.,12.0
1980-11-15 12:52:39.690 ,1,1,0.,12.0,0.,12.0,0.,12.0,0.,12.0
1980-11-15 12:52:51.690 ,1,1,0.,12.0,0.,12.0,0.,12.0,0.,12.0
1980-11-15 12:53:03.690 ,1,0,0.,12.0,0.,12.0,0.,12.0,0.,12.0
1980-11-15 12:53:15.690 ,1,0,0.,12.0,0.,12.0,0.,12.0,0.,12.0
1980-11-15 12:53:27.690 ,2,1,0.,12.0,0.,12.0,0.,12.0,0.,12.0
1980-11-15 12:53:39.690 ,2,1,0.,12.0,0.,12.0,0.,12.0,0.,12.0
1980-11-15 12:53:51.690 ,2,0,0.,12.0,0.,12.0,0.,12.0,0.,12.0
1980-11-15 12:54:03.690 ,2,0,0.,12.0,0.,12.0,0.,12.0,0.,12.0
1980-11-15 12:54:15.690 ,3,1,0.,12.0,0.,12.0,0.,12.0,0.,12.0
1980-11-15 12:54:27.690 ,3,1,0.,12.0,0.,12.0,0.,12.0,0.,12.0
1980-11-15 12:54:39.690 ,3,0,0.,12.0,0.,12.0,0.,12.0,0.,12.0
1980-11-15 12:54:51.690 ,3,0,0.,12.0,0.,12.0,0.,12.0,0.,12.0
1980-11-15 12:55:03.690 ,4,1,0.,12.0,0.,12.0,0.,12.0,0.,12.0
1980-11-15 12:55:15.690 ,4,1,0.,12.0,0.,12.0,0.,12.0,0.,12.0
1980-11-15 12:55:27.690 ,4,0,0.,12.0,0.,12.0,0.,12.0,0.,12.0
1980-11-15 12:55:39.690 ,4,0,0.,12.0,0.,12.0,0.,12.0,0.,12.0
1980-11-15 12:55:51.690 ,5,1,0.,12.0,0.,12.0,0.,12.0,0.,12.0
1980-11-15 12:56:03.690 ,5,1,0.,12.0,0.,12.0,0.,12.0,0.,12.0
1980-11-15 12:56:15.690 ,5,0,0.,12.0,0.,12.0,0.,12.0,0.,12.0
1980-11-15 12:56:27.690 ,5,0,0.,12.0,0.,12.0,0.,12.0,0.,12.0
1980-11-15 12:56:39.690 ,6,1,0.,12.0,0.,12.0,0.,12.0,0.,12.0
1980-11-15 12:56:51.690 ,6,1,0.,12.0,0.,12.0,0.,12.0,0.,12.0
1980-11-15 12:57:03.690 ,6,0,0.,12.0,0.,12.0,0.,12.0,0.,12.0
1980-11-15 12:57:15.690 ,6,0,0.,12.0,0.,12.0,0.,12.0,0.,12.0
1980-11-15 12:57:27.690 ,7,1,0.,12.0,0.,12.0,0.,12.0,0.,12.0
1980-11-15 12:57:39.690 ,7,1,0.,12.0,0.,12.0,0.,12.0,0.,12.0
1980-11-15 12:57:51.690 ,7,0,0.,12.0,0.,12.0,0.,12.0,0.,12.0
1980-11-15 12:58:03.690 ,7,0,0.,12.0,0.,12.0,0.,12.0,0.,12.0
1980-11-15 12:58:15.690 ,7,1,0.,12.0,0.,12.0,0.,12.0,0.,12.0
1980-11-15 12:58:27.690 ,7,1,0.,12.0,0.,12.0,0.,12.0,0.,12.0
1980-11-15 12:58:39.690 ,7,0,0.,12.0,0.,12.0,0.,12.0,0.,12.0
1980-11-15 12:58:51.690 ,7,0,0.,12.0,0.,12.0,0.,12.0,0.,12.0
1980-11-15 12:59:03.690 ,6,1,0.,12.0,0.,12.0,0.,12.0,0.,12.0
1980-11-15 12:59:15.690 ,6,1,0.,12.0,0.,12.0,0.,12.0,0.,12.0
1980-11-15 12:59:27.690 ,6,0,0.,12.0,0.,12.0,0.,12.0,0.,12.0
1980-11-15 12:59:39.690 ,6,0,0.,12.0,0.,12.0,0.,12.0,0.,12.0
1980-11-15 12:59:51.690 ,5,1,0.,12.0,0.,12.0,0.,12.0,0.,12.0
1980-11-15 13:00:03.690 ,5,1,0.,12.0,0.,12.0,0.,12.0,0.,12.0
1980-11-15 13:00:15.690 ,5,0,0.,12.0,0.,12.0,0.,12.0,0.,12.0
1980-11-15 13:00:27.690 ,5,0,0.,12.0,0.,12.0,0.,12.0,0.,12.0
1980-11-15 13:00:39.690 ,4,1,0.,12.0,0.,12.0,0.,12.0,0.,12.0
1980-11-15 13:00:51.690 ,4,1,0.,12.0,0.,12.0,0.,12.0,0.,12.0
1980-11-15 13:01:03.690 ,4,0,0.,12.0,0.,12.0,0.,12.0,0.,12.0
1980-11-15 13:01:15.690 ,4,0,0.,12.0,0.,12.0,0.,12.0,0.,12.0
1980-11-15 13:01:27.690 ,3,1,0.,12.0,0.,12.0,0.,12.0,0.,12.0
1980-11-15 13:01:39.690 ,3,1,0.,12.0,0.,12.0,0.,12.0,0.,12.0
1980-11-15 13:01:51.690 ,3,0,0.,12.0,0.,12.0,0.,12.0,0.,12.0
1980-11-15 13:02:03.690 ,3,0,0.,12.0,0.,12.0,0.,12.0,0.,12.0
1980-11-15 13:02:15.690 ,2,1,0.,12.0,0.,12.0,0.,12.0,0.,12.0
1980-11-15 13:02:27.690 ,2,1,0.,12.0,0.,12.0,0.,12.0,0.,12.0
1980-11-15 13:02:39.690 ,2,0,0.,12.0,0.,12.0,0.,12.0,0.,12.0
1980-11-15 13:02:51.690 ,2,0,0.,12.0,0.,12.0,0.,12.0,0.,12.0
1980-11-15 13:03:03.690 ,1,1,0.,12.0,0.,12.0,0.,12.0,0.,12.0
1980-11-15 13:03:15.690 ,1,1,0.,12.0,0.,12.0,0.,12.0,0.,12.0
1980-11-15 13:03:27.690 ,1,0,0.,12.0,0.,12.0,0.,12.0,0.,12.0
1980-11-15 13:03:39.690 ,1,0,0.,12.0,0.,12.0,0.,12.0,0.,12.0
1980-11-15 13:03:51.690 ,0,1,0.,12.0,0.,12.0,0.,12.0,0.,12.0
1980-11-15 13:04:03.690 ,0,1,0.,12.0,0.,12.0,0.,12.0,0.,12.0
1980-11-15 13:04:15.690 ,0,0,0.,12.0,0.,12.0,0.,12.0,0.,12.0
1980-11-15 13:04:27.690 ,0,0,0.,12.0,0.,12.0,0.,12.0,0.,12.0
1980-11-15 13:04:39.690 ,0,1,0.,12.0,0.,12.0,0.,12.0,0.,12.0
1980-11-15 13:04:51.690 ,0,1,0.,12.0,0.,12.0,0.,12.0,0.,12.0
1980-11-15 13:05:03.690 ,0,0,0.,12.0,0.,12.0,0.,12.0,0.,12.0
1980-11-15 13:05:15.690 ,0,0,0.,12.0,0.,12.0,0.,12.0,0.,12.0
1980-11-15 13:05:27.690 ,1,1,0.,12.0,0.,12.0,0.,12.0,0.,12.0
1980-11-15 13:05:39.690 ,1,1,0.,12.0,0.,12.0,0.,12.0,0.,12.0
1980-11-15 13:05:51.690 ,1,0,1.,12.0,0.,12.0,0.,12.0,0.,12.0
1980-11-15 13:06:03.690 ,1,0,0.,12.0,0.,12.0,0.,12.0,0.,12.0
1980-11-15 13:06:15.690 ,2,1,0.,12.0,0.,12.0,0.,12.0,0.,12.0
1980-11-15 13:06:27.690 ,2,1,0.,12.0,0.,12.0,0.,12.0,0.,12.0
1980-11-15 13:06:39.690 ,2,0,0.,12.0,0.,12.0,0.,12.0,0.,12.0
1980-11-15 13:06:51.690 ,2,0,0.,12.0,0.,12.0,0.,12.0,0.,12.0
1980-11-15 13:07:03.690 ,3,1,0.,12.0,0.,12.0,0.,12.0,0.,12.0
1980-11-15 13:07:15.690 ,3,1,0.,12.0,0.,12.0,0.,12.0,0.,12.0
1980-11-15 13:07:27.690 ,3,0,0.,12.0,0.,12.0,0.,12.0,0.,12.0
1980-11-15 13:07:39.690 ,3,0,0.,12.0,0.,12.0,0.,12.0,0.,12.0
1980-11-15 13:07:51.690 ,4,1,0.,12.0,0.,12.0,0.,12.0,0.,12.0
1980-11-15 13:08:03.690 ,4,1,0.,12.0,0.,12.0,0.,12.0,0.,12.0
1980-11-15 13:08:15.690 ,4,0,0.,12.0,0.,12.0,0.,12.0,0.,12.0
1980-11-15 13:08:27.690 ,4,0,0.,12.0,0.,12.0,0.,12.0,0.,12.0
1980-11-15 13:08:39.690 ,5,1,0.,12.0,0.,12.0,0.,12.0,0.,12.0
1980-11-15 13:08:51.690 ,5,1,0.,12.0,0.,12.0,0.,12.0,0.,12.0
1980-11-15 13:09:03.690 ,5,0,0.,12.0,0.,12.0,0.,12.0,0.,12.0
1980-11-15 13:09:15.690 ,5,0,0.,12.0,0.,12.0,0.,12.0,0.,12.0
1980-11-15 13:09:27.690 ,6,1,0.,12.0,0.,12.0,0.,12.0,0.,12.0
1980-11-15 13:09:39.690 ,6,1,0.,12.0,0.,12.0,0.,12.0,0.,12.0
1980-11-15 13:09:51.690 ,6,0,0.,12.0,0.,12.0,0.,12.0,0.,12.0
1980-11-15 13:10:03.690 ,6,0,0.,12.0,0.,12.0,0.,12.0,0.,12.0
1980-11-15 13:10:15.690 ,7,1,0.,12.0,0.,12.0,0.,12.0,0.,12.0
1980-11-15 13:10:27.690 ,7,1,0.,12.0,0.,12.0,0.,12.0,0.,12.0
1980-11-15 13:10:39.690 ,7,0,0.,12.0,0.,12.0,0.,12.0,0.,12.0
1980-11-15 13:10:51.690 ,7,0,0.,12.0,0.,12.0,0.,12.0,0.,12.0
1980-11-15 13:11:03.690 ,7,1,0.,12.0,0.,12.0,0.,12.0,0.,12.0
1980-11-15 13:11:15.690 ,7,1,0.,12.0,0.,12.0,0.,12.0,0.,12.0
1980-11-15 13:11:27.690 ,7,0,0.,12.0,0.,12.0,0.,12.0,0.,12.0
1980-11-15 13:11:39.690 ,7,0,0.,12.0,0.,12.0,0.,12.0,0.,12.0
1980-11-15 13:11:51.690 ,6,1,0.,12.0,0.,12.0,0.,12.0,0.,12.0
1980-11-15 13:12:03.690 ,6,1,0.,12.0,0.,12.0,0.,12.0,0.,12.0
1980-11-15 13:12:15.690 ,6,0,0.,12.0,0.,12.0,0.,12.0,0.,12.0
1980-11-15 13:12:27.690 ,6,0,0.,12.0,0.,12.0,0.,12.0,0.,12.0
1980-11-15 13:12:39.690 ,5,1,0.,12.0,0.,12.0,0.,12.0,0.,12.0
1980-11-15 13:12:51.690 ,5,1,0.,12.0,0.,12.0,0.,12.0,0.,12.0
1980-11-15 13:13:03.690 ,5,0,0.,12.0,0.,12.0,0.,12.0,0.,12.0
1980-11-15 13:13:15.690 ,5,0,0.,12.0,0.,12.0,0.,12.0,0.,12.0
1980-11-15 13:13:27.690 ,4,1,0.,12.0,0.,12.0,0.,12.0,0.,12.0
1980-11-15 13:13:39.690 ,4,1,0.,12.0,0.,12.0,0.,12.0,0.,12.0
1980-11-15 13:13:51.690 ,4,0,0.,12.0,0.,12.0,0.,12.0,0.,12.0
1980-11-15 13:14:03.690 ,4,0,0.,12.0,0.,12.0,0.,12.0,0.,12.0
1980-11-15 13:14:15.690 ,3,1,0.,12.0,0.,12.0,0.,12.0,0.,12.0
1980-11-15 13:14:27.690 ,3,1,0.,12.0,0.,12.0,0.,12.0,0.,12.0
1980-11-15 13:14:39.690 ,3,0,0.,12.0,0.,12.0,0.,12.0,0.,12.0
1980-11-15 13:14:51.690 ,3,0,0.,12.0,0.,12.0,0.,12.0,0.,12.0
1980-11-15 13:15:03.690 ,2,1,0.,12.0,0.,12.0,0.,12.0,0.,12.0
1980-11-15 13:15:15.690 ,2,1,0.,12.0,0.,12.0,0.,12.0,0.,12.0
1980-11-15 13:15:27.690 ,2,0,0.,12.0,0.,12.0,0.,12.0,0.,12.0
1980-11-15 13:15:39.690 ,2,0,0.,12.0,0.,12.0,0.,12.0,0.,12.0
1980-11-15 13:15:51.690 ,1,1,0.,12.0,0.,12.0,0.,12.0,0.,12.0
1980-11-15 13:16:03.690 ,1,1,0.,12.0,0.,12.0,0.,12.0,0.,12.0
1980-11-15 13:16:15.690 ,1,0,0.,12.0,0.,12.0,0.,12.0,0.,12.0
1980-11-15 13:16:27.690 ,1,0,0.,12.0,0.,12.0,0.,12.0,0.,12.0
1980-11-15 13:16:39.690 ,0,1,0.,12.0,0.,12.0,0.,12.0,0.,12.0
1980-11-15 13:16:51.690 ,0,1,0.,12.0,0.,12.0,0.,12.0,0.,12.0
1980-11-15 13:17:03.690 ,0,0,0.,12.0,0.,12.0,0.,12.0,0.,12.0
1980-11-15 13:17:15.690 ,0,0,0.,12.0,0.,12.0,0.,12.0,0.,12.0
1980-11-15 13:17:27.690 ,0,1,0.,12.0,0.,12.0,0.,12.0,0.,12.0
1980-11-15 13:17:39.690 ,0,1,0.,12.0,0.,12.0,0.,12.0,0.,12.0
1980-11-15 13:17:51.690 ,0,0,0.,12.0,0.,12.0,0.,12.0,0.,12.0
1980-11-15 13:18:03.690 ,0,0,0.,12.0,0.,12.0,0.,12.0,0.,12.0
1980-11-15 13:18:15.690 ,1,1,0.,12.0,0.,12.0,0.,12.0,0.,12.0
1980-11-15 13:18:27.690 ,1,1,0.,12.0,0.,12.0,0.,12.0,0.,12.0
1980-11-15 13:18:39.690 ,1,0,0.,12.0,0.,12.0,0.,12.0,0.,12.0
1980-11-15 13:18:51.690 ,1,0,0.,12.0,0.,12.0,0.,12.0,0.,12.0
1980-11-15 13:19:03.690 ,2,1,0.,12.0,0.,12.0,0.,12.0,0.,12.0
1980-11-15 13:19:15.690 ,2,1,0.,12.0,0.,12.0,0.,12.0,0.,12.0
1980-11-15 13:19:27.690 ,2,0,0.,12.0,0.,12.0,0.,12.0,0.,12.0
1980-11-15 13:19:39.690 ,2,0,0.,12.0,0.,12.0,0.,12.0,0.,12.0
1980-11-15 13:19:51.690 ,3,1,0.,12.0,0.,12.0,0.,12.0,0.,12.0
1980-11-15 13:20:03.690 ,3,1,0.,12.0,0.,12.0,0.,12.0,0.,12.0
1980-11-15 13:20:15.690 ,3,0,0.,12.0,0.,12.0,0.,12.0,0.,12.0
1980-11-15 13:20:27.690 ,3,0,0.,12.0,0.,12.0,0.,12.0,0.,12.0
1980-11-15 13:20:39.690 ,4,1,0.,12.0,0.,12.0,0.,12.0,0.,12.0
1980-11-15 13:20:51.690 ,4,1,0.,12.0,0.,12.0,0.,12.0,0.,12.0
1980-11-15 13:21:03.690 ,4,0,0.,12.0,0.,12.0,0.,12.0,0.,12.0
1980-11-15 13:21:15.690 ,4,0,0.,12.0,0.,12.0,0.,12.0,0.,12.0
1980-11-15 13:21:27.690 ,5,1,0.,12.0,0.,12.0,0.,12.0,0.,12.0
1980-11-15 13:21:39.690 ,5,1,0.,12.0,0.,12.0,0.,12.0,0.,12.0
1980-11-15 13:21:51.690 ,5,0,0.,12.0,0.,12.0,0.,12.0,0.,12.0
1980-11-15 13:22:03.690 ,5,0,0.,12.0,0.,12.0,0.,12.0,0.,12.0
1980-11-15 13:22:15.690 ,6,1,0.,12.0,0.,12.0,0.,12.0,0.,12.0
1980-11-15 13:22:27.690 ,6,1,0.,12.0,0.,12.0,0.,12.0,0.,12.0
1980-11-15 13:22:39.690 ,6,0,0.,12.0,0.,12.0,0.,12.0,0.,12.0
1980-11-15 13:22:51.690 ,6,0,0.,12.0,0.,12.0,0.,12.0,0.,12.0
1980-11-15 13:23:03.690 ,7,1,0.,12.0,0.,12.0,0.,12.0,0.,12.0
1980-11-15 13:23:15.690 ,7,1,0.,12.0,0.,12.0,0.,12.0,0.,12.0
1980-11-15 13:23:27.690 ,7,0,0.,12.0,0.,12.0,0.,12.0,0.,12.0
1980-11-15 13:23:39.690 ,7,0,0.,12.0,0.,12.0,0.,12.0,0.,12.0
1980-11-15 13:23:51.690 ,7,1,0.,12.0,0.,12.0,0.,12.0,0.,12.0
1980-11-15 13:24:03.690 ,7,1,0.,12.0,0.,12.0,0.,12.0,0.,12.0
1980-11-15 13:24:15.690 ,7,0,0.,12.0,0.,12.0,0.,12.0,0.,12.0
1980-11-15 13:24:27.690 ,7,0,0.,12.0,0.,12.0,0.,12.0,0.,12.0
1980-11-15 13:24:39.690 ,6,1,0.,12.0,0.,12.0,0.,12.0,0.,12.0
1980-11-15 13:24:51.690 ,6,1,0.,12.0,0.,12.0,0.,12.0,0.,12.0